TimeCST,TemperatureF,Dew PointF,Humidity,Sea Level PressureIn,VisibilityMPH,Wind Direction,Wind SpeedMPH,Gust SpeedMPH,PrecipitationIn,Events,Conditions,WindDirDegrees,DateUTC
12:13 AM,36.0,30.0,79,30.14,10.0,North,23.0,26.5,N/A,,Scattered Clouds,350,2013-11-11 06:13:00
12:33 AM,33.8,29.8,85,30.15,10.0,NNW,20.7,26.5,N/A,,Mostly Cloudy,340,2013-11-11 06:33:00
12:53 AM,32.0,29.7,91,30.16,10.0,NNW,20.7,29.9,N/A,,Overcast,340,2013-11-11 06:53:00
1:14 AM,29.1,27.5,94,30.17,10.0,NNW,25.3,28.8,N/A,,Overcast,340,2013-11-11 07:14:00
1:34 AM,27.5,26.2,95,30.16,10.0,North,23.0,27.6,N/A,,Overcast,360,2013-11-11 07:34:00
1:53 AM,27.5,26.1,94,30.19,10.0,North,21.9,31.1,N/A,,Overcast,350,2013-11-11 07:53:00
2:13 AM,26.1,23.4,90,30.19,10.0,North,21.9,34.5,N/A,,Overcast,350,2013-11-11 08:13:00
2:33 AM,25.2,21.2,85,30.21,10.0,NNW,20.7,31.1,N/A,,Mostly Cloudy,340,2013-11-11 08:33:00
2:53 AM,24.1,19.6,83,30.22,10.0,North,21.9,31.1,N/A,,Overcast,350,2013-11-11 08:53:00
3:13 AM,23.7,18.1,79,30.23,10.0,North,26.5,31.1,N/A,,Overcast,350,2013-11-11 09:13:00
3:34 AM,22.6,17.8,82,30.24,10.0,North,24.2,28.8,N/A,,Overcast,350,2013-11-11 09:34:00
3:53 AM,21.7,18.0,85,30.24,3.0,North,24.2,32.2,N/A,Snow,Light Snow,360,2013-11-11 09:53:00
4:13 AM,21.2,17.8,87,30.26,7.0,North,23.0,27.6,N/A,Snow,Light Snow,350,2013-11-11 10:13:00
4:34 AM,20.5,16.7,85,30.27,7.0,North,25.3,34.5,N/A,Snow,Light Snow,360,2013-11-11 10:34:00
4:53 AM,19.4,16.7,89,30.28,4.0,North,23.0,29.9,N/A,Snow,Light Snow,350,2013-11-11 10:53:00
5:14 AM,19.0,15.8,87,30.29,2.5,North,23.0,27.6,N/A,Snow,Light Snow,350,2013-11-11 11:14:00
5:33 AM,18.0,15.4,90,30.32,1.0,North,17.3,26.5,N/A,Snow,Snow,350,2013-11-11 11:33:00
5:53 AM,17.2,14.7,90,30.32,1.5,North,16.1,23.0,N/A,Snow,Light Snow,350,2013-11-11 11:53:00
6:13 AM,16.7,14.4,91,30.33,1.0,North,18.4,25.3,N/A,Snow,Snow,350,2013-11-11 12:13:00
6:34 AM,16.7,14.4,91,30.34,1.5,North,20.7,24.2,N/A,Snow,Light Snow,350,2013-11-11 12:34:00
6:54 AM,16.5,12.4,84,30.35,3.0,NNW,18.4,25.3,N/A,Snow,Light Snow,340,2013-11-11 12:54:00
7:13 AM,16.0,12.7,87,30.36,2.0,NNW,17.3,25.3,N/A,Snow,Light Snow,340,2013-11-11 13:13:00
7:34 AM,16.3,10.8,79,30.38,10.0,NNW,16.1,24.2,N/A,,Overcast,340,2013-11-11 13:34:00
7:53 AM,16.3,10.9,79,30.39,10.0,NNW,21.9,26.5,N/A,,Overcast,340,2013-11-11 13:53:00
8:13 AM,16.2,11.1,81,30.39,7.0,North,23.0,32.2,N/A,,Overcast,350,2013-11-11 14:13:00
8:33 AM,16.2,11.5,82,30.41,10.0,North,21.9,28.8,N/A,,Overcast,350,2013-11-11 14:33:00
8:53 AM,16.5,11.8,82,30.41,10.0,NNW,20.7,26.5,N/A,,Overcast,340,2013-11-11 14:53:00
9:13 AM,16.7,12.2,82,30.42,7.0,North,18.4,28.8,N/A,,Overcast,350,2013-11-11 15:13:00
9:33 AM,16.3,11.3,81,30.43,10.0,NNW,21.9,27.6,N/A,,Overcast,340,2013-11-11 15:33:00
9:53 AM,15.6,9.5,77,30.45,10.0,North,21.9,29.9,N/A,,Mostly Cloudy,350,2013-11-11 15:53:00
10:13 AM,15.8,9.0,74,30.46,10.0,North,23.0,29.9,N/A,,Scattered Clouds,350,2013-11-11 16:13:00
10:33 AM,15.8,9.5,76,30.47,10.0,North,17.3,27.6,N/A,,Mostly Cloudy,350,2013-11-11 16:33:00
10:53 AM,15.8,9.5,76,30.48,10.0,NNW,23.0,27.6,N/A,,Mostly Cloudy,340,2013-11-11 16:53:00
11:13 AM,17.1,9.1,71,30.48,10.0,North,20.7,29.9,N/A,,Mostly Cloudy,350,2013-11-11 17:13:00
11:32 AM,17.1,9.3,72,30.49,10.0,North,24.2,29.9,N/A,,Scattered Clouds,350,2013-11-11 17:32:00
11:53 AM,17.4,9.7,72,30.49,10.0,NNW,19.6,27.6,N/A,,Clear,340,2013-11-11 17:53:00
12:14 PM,16.7,8.1,69,30.50,10.0,North,21.9,29.9,N/A,,Clear,350,2013-11-11 18:14:00
12:33 PM,18.0,9.5,70,30.50,10.0,North,21.9,27.6,N/A,,Clear,350,2013-11-11 18:33:00
12:53 PM,19.2,10.4,69,30.50,10.0,North,23.0,27.6,N/A,,Clear,350,2013-11-11 18:53:00
1:13 PM,18.5,9.9,69,30.51,10.0,North,16.1,21.9,N/A,,Clear,350,2013-11-11 19:13:00
1:34 PM,18.5,9.9,69,30.52,10.0,NNW,17.3,23.0,N/A,,Clear,340,2013-11-11 19:34:00
1:53 PM,17.2,8.1,67,30.53,10.0,North,18.4,24.2,N/A,,Clear,350,2013-11-11 19:53:00
2:13 PM,18.7,8.8,65,30.53,10.0,NNW,18.4,26.5,N/A,,Clear,340,2013-11-11 20:13:00
2:33 PM,17.8,8.2,66,30.53,10.0,NNW,18.4,-,N/A,,Clear,340,2013-11-11 20:33:00
2:53 PM,19.2,8.4,63,30.54,10.0,North,20.7,25.3,N/A,,Clear,350,2013-11-11 20:53:00
3:13 PM,19.2,8.4,63,30.54,10.0,NNW,20.7,25.3,N/A,,Clear,340,2013-11-11 21:13:00
3:34 PM,19.0,7.7,61,30.54,10.0,North,19.6,25.3,N/A,,Clear,350,2013-11-11 21:34:00
3:54 PM,18.5,7.9,63,30.56,10.0,NNW,18.4,25.3,N/A,,Clear,340,2013-11-11 21:54:00
4:15 PM,18.3,7.7,63,30.57,10.0,NNW,17.3,-,N/A,,Clear,340,2013-11-11 22:15:00
4:33 PM,17.6,7.0,63,30.58,10.0,NNW,16.1,20.7,N/A,,Clear,340,2013-11-11 22:33:00
4:53 PM,16.7,7.5,67,30.58,10.0,NNW,16.1,20.7,N/A,,Clear,340,2013-11-11 22:53:00
5:12 PM,15.4,7.3,70,30.60,10.0,NNW,16.1,-,N/A,,Clear,340,2013-11-11 23:12:00
5:34 PM,14.7,6.8,71,30.60,10.0,NNW,12.7,-,N/A,,Clear,330,2013-11-11 23:34:00
5:53 PM,14.5,6.8,71,30.61,10.0,NNW,12.7,-,N/A,,Clear,340,2013-11-11 23:53:00
6:13 PM,14.0,6.8,73,30.62,10.0,NNW,10.4,-,N/A,,Clear,340,2013-11-12 00:13:00
6:33 PM,13.1,6.8,76,30.63,10.0,NNW,10.4,-,N/A,,Clear,340,2013-11-12 00:33:00
6:53 PM,12.2,6.6,78,30.64,10.0,NNW,11.5,-,N/A,,Clear,340,2013-11-12 00:53:00
7:13 PM,12.2,6.4,78,30.66,10.0,NNW,10.4,-,N/A,,Clear,340,2013-11-12 01:13:00
7:33 PM,12.2,6.4,78,30.66,10.0,NNW,10.4,-,N/A,,Clear,340,2013-11-12 01:33:00
7:53 PM,11.8,6.4,79,30.67,10.0,NNW,10.4,-,N/A,,Clear,340,2013-11-12 01:53:00
8:13 PM,11.3,6.3,80,30.68,10.0,NNW,10.4,-,N/A,,Clear,340,2013-11-12 02:13:00
8:34 PM,11.3,6.4,81,30.68,10.0,NNW,12.7,-,N/A,,Clear,340,2013-11-12 02:34:00
8:53 PM,10.9,6.3,81,30.69,10.0,NNW,11.5,-,N/A,,Clear,340,2013-11-12 02:53:00
9:13 PM,10.4,5.9,82,30.70,10.0,NNW,9.2,-,N/A,,Clear,340,2013-11-12 03:13:00
9:33 PM,10.0,5.9,83,30.70,10.0,NNW,8.1,-,N/A,,Clear,330,2013-11-12 03:33:00
9:53 PM,9.5,5.7,85,30.70,10.0,NNW,8.1,-,N/A,,Clear,340,2013-11-12 03:53:00
10:13 PM,9.3,5.5,85,30.71,10.0,NNW,8.1,-,N/A,,Clear,330,2013-11-12 04:13:00
10:33 PM,9.0,5.2,85,30.72,10.0,NNW,9.2,-,N/A,,Clear,330,2013-11-12 04:33:00
10:52 PM,9.0,5.0,84,30.73,10.0,NW,8.1,-,N/A,,Clear,320,2013-11-12 04:52:00
11:13 PM,5.7,2.8,88,30.73,10.0,NW,6.9,-,N/A,,Clear,310,2013-11-12 05:13:00
11:34 PM,4.6,1.4,86,30.73,10.0,NW,5.8,-,N/A,,Clear,310,2013-11-12 05:34:00
11:53 PM,5.5,2.8,89,30.74,10.0,NW,6.9,-,N/A,,Clear,310,2013-11-12 05:53:00